Temperature
23 23 23 22 21 20 23 24 24 24 24 24 24 24 22 21 21 21 21 21 21 20 20 20 19 19 19 19 19 19 19 19 20 19 19 19 19 19 19 19 19 19 19 19 19 19 19 19 19
24 23 23 23 20 21 23 24 24 25 25 24 24 23 22 20 20 20 21 20 21 20 20 20 20 20 19 19 20 20 20 20 20 20 19 19 19 19 19 19 19 19 19 19 19 19 19 19 19
24 24 24 20 21 22 24 24 24 25 25 25 23 23 22 21 21 21 21 20 20 20 20 20 20 20 20 20 20 20 20 20 20 20 20 20 20 20 20 20 20 19 19 19 19 19 19 19 19
24 24 24 20 23 23 23 24 24 24 25 24 23 22 21 21 21 21 21 21 20 20 20 20 20 20 20 20 20 20 20 20 20 20 20 20 20 20 20 20 20 19 19 19 19 19 19 19 19
25 24 21 21 22 23 23 24 25 24 24 24 23 21 21 21 21 21 21 21 21 21 20 20 20 20 20 20 20 19 20 20 19 19 20 20 20 20 20 19 19 19 19 19 19 19 18 18 18
25 22 21 21 22 23 23 24 25 24 24 23 23 21 21 21 21 21 21 21 21 21 21 20 20 20 20 20 20 19 19 19 19 19 19 19 19 19 19 19 19 19 19 19 18 18 18 18 18
24 21 21 22 22 23 24 24 24 24 23 23 23 21 21 21 21 21 21 21 21 21 21 21 20 20 20 20 20 20 19 19 19 19 19 19 19 19 19 19 19 19 19 18 18 18 18 18 18
25 20 21 21 22 23 23 24 25 24 24 24 23 22 21 22 21 21 20 20 21 21 21 21 21 21 20 20 20 20 19 19 19 19 19 19 19 19 19 19 19 19 19 18 18 18 18 18 18
25 20 21 22 22 23 23 24 24 25 24 23 23 23 23 22 21 20 20 20 20 20 21 21 21 21 20 20 20 20 19 19 19 19 19 19 19 19 19 19 19 19 19 18 18 18 18 18 18
24 20 23 22 22 22 23 22 22 23 23 22 23 23 23 22 21 21 21 20 21 21 21 21 21 20 20 20 20 20 19 19 19 19 19 19 19 19 19 19 19 19 19 18 18 18 18 18 18
23 22 23 22 22 22 23 21 21 21 20 20 20 21 21 21 20 20 20 20 21 21 20 20 20 20 20 20 20 19 19 19 19 19 19 19 19 19 19 19 19 19 19 19 18 18 18 18 18
23 23 23 23 23 22 22 21 20 18 18 18 20 20 20 19 19 19 19 19 20 20 20 20 20 20 20 20 20 19 19 19 19 19 19 19 19 19 19 19 19 19 19 19 18 18 18 18 18
23 23 23 23 22 21 20 19 19 17 17 18 19 19 18 18 18 18 18 18 19 19 20 20 20 20 20 20 19 19 19 19 19 19 19 19 19 19 19 18 19 19 19 19 18 18 18 18 17
23 22 22 21 21 20 18 18 18 17 16 17 17 16 16 17 17 17 18 18 18 18 19 19 20 20 20 20 20 20 19 19 19 19 19 19 19 19 19 18 19 19 19 19 18 18 18 17 17
24 22 21 20 20 20 19 16 16 16 15 15 15 15 15 16 16 16 16 17 17 17 18 18 19 19 20 20 20 20 19 19 19 19 19 19 19 19 19 18 18 19 19 18 18 18 18 18 18
22 21 20 20 19 19 18 15 15 15 14 14 14 14 15 15 15 15 16 16 17 17 18 18 19 19 20 20 20 20 19 19 19 19 19 18 18 18 18 18 18 18 18 18 18 18 18 18 18
19 20 20 19 17 17 16 14 14 14 13 13 13 13 14 14 15 15 15 16 16 17 17 18 18 19 19 19 20 20 19 19 19 19 19 19 18 18 18 18 18 18 18 18 18 18 18 18 18
20 19 19 18 16 15 14 13 14 13 13 13 12 13 13 13 14 14 15 15 16 16 17 17 17 18 18 19 19 20 20 19 19 19 19 19 19 18 18 18 18 18 18 18 18 18 18 18 18
19 19 18 18 16 15 13 13 13 13 13 12 12 12 12 13 13 14 14 15 15 16 16 17 17 17 18 18 19 19 19 19 20 19 19 19 19 18 18 18 18 18 18 18 18 18 18 18 18
18 18 17 17 16 14 13 13 13 13 13 12 12 12 12 12 13 13 14 14 14 15 15 16 16 16 17 17 17 18 19 19 19 19 19 19 19 18 18 18 18 18 18 18 17 17 17 17 17
17 17 17 17 15 14 13 13 12 13 13 12 12 12 11 11 12 12 13 13 14 14 14 14 15 15 16 16 17 17 18 18 18 19 19 19 19 18 18 18 18 17 17 17 17 17 17 17 17
15 16 16 16 15 12 13 12 11 11 11 12 12 11 11 11 12 12 12 12 13 13 13 13 14 14 15 15 15 16 16 17 18 18 18 18 18 18 18 18 18 17 17 17 17 16 16 16 16
15 15 15 15 13 11 11 11 11 10 10 11 11 11 11 11 11 11 12 12 12 13 13 13 13 13 14 14 14 15 15 16 16 17 17 17 17 18 18 18 17 17 17 17 16 16 16 16 16
14 14 13 11 11 11 11 11 11 10 10 10 11 11 11 11 11 11 12 12 12 13 13 13 13 13 13 14 14 14 15 15 15 16 16 16 16 16 17 17 17 16 16 16 16 16 16 15 15
12 12 13 13 11 11 11 11 11 11 11 11 11 11 11 11 11 11 11 12 12 12 12 12 12 13 13 13 13 14 14 14 15 15 15 15 15 15 15 15 15 16 15 15 15 15 15 15 15
12 11 12 13 12 11 11 11 11 12 12 11 11 11 11 11 11 11 11 11 11 12 12 12 12 12 13 13 13 13 13 14 14 14 14 15 15 15 15 15 15 15 15 15 15 15 15 15 15
13 11 11 10 11 11 11 12 12 12 11 11 11 11 11 11 11 11 11 11 11 12 12 12 12 12 13 13 13 13 13 13 13 14 14 14 14 14 14 14 14 14 14 14 14 14 14 14 14
12 11 9 10 11 11 11 11 10 10 11 11 11 11 11 12 12 11 11 11 11 11 12 12 12 12 12 13 13 13 13 13 13 13 13 14 14 14 14 14 14 14 14 14 14 14 14 14 14
12 11 9 8 9 10 10 11 11 10 10 10 11 11 12 12 12 12 12 11 11 11 12 12 12 12 12 12 13 13 13 13 13 13 13 13 13 13 13 13 13 13 13 13 13 13 13 13 13
12 10 10 9 9 9 10 10 12 10 11 11 11 12 13 13 12 12 12 12 12 11 11 11 11 12 12 12 12 12 13 13 13 13 13 13 13 13 13 13 13 13 13 13 13 13 13 13 13
Wind_Speed
2 4 4 3 6 6 4 4 2 3 5 3 4 6 7 4 2 1 2 9 11 11 11 14 14 13 13 12 12 12 12 12 12 12 13 13 13 13 12 12 11 10 9 9 8 9 9 9 9
1 3 3 5 6 5 3 4 1 2 5 4 5 5 6 4 3 5 5 7 12 11 12 13 14 14 13 12 12 11 11 11 11 11 11 11 11 11 11 11 10 9 9 8 8 8 8 9 9
3 2 4 5 5 3 1 2 0 3 3 2 4 5 4 3 5 5 6 11 11 10 12 13 15 14 13 12 12 11 11 11 10 10 10 10 10 10 10 9 9 8 8 8 7 7 7 7 8
3 4 5 6 4 2 3 2 1 5 2 5 4 5 4 2 6 6 11 13 12 9 12 14 15 14 13 12 11 11 11 10 10 9 9 9 9 9 8 8 8 7 7 6 6 6 6 6 7
4 5 7 5 5 5 3 3 2 4 2 3 4 4 3 4 7 12 13 13 12 9 11 14 16 14 13 12 11 11 10 10 10 9 9 8 8 7 7 7 6 6 5 5 5 5 5 5 5
4 5 6 4 7 7 5 5 1 4 4 3 4 4 3 2 7 11 12 11 10 10 10 13 16 15 14 13 12 11 11 10 10 9 8 7 7 7 6 6 5 4 4 4 4 4 4 4 5
4 5 4 2 4 7 8 7 3 3 4 3 4 5 1 2 5 10 9 8 8 7 8 9 13 15 15 14 13 13 12 11 10 9 8 7 6 6 6 5 4 3 3 3 3 4 4 4 5
4 5 4 2 3 5 8 6 4 3 2 3 4 6 5 6 7 7 7 6 6 6 6 6 9 12 13 14 15 14 13 13 12 11 9 8 7 7 6 6 4 3 2 2 2 3 4 4 4
4 5 2 1 1 2 5 6 7 4 5 4 3 2 4 11 10 8 6 5 6 7 6 5 6 9 10 11 13 14 14 14 13 12 11 10 7 6 6 6 5 4 3 2 1 1 2 4 5
5 4 2 3 3 1 3 6 8 7 8 7 7 8 8 11 9 8 7 7 9 9 8 6 6 6 7 10 10 11 11 12 13 11 11 10 8 7 6 6 6 6 4 3 2 0 2 4 4
4 4 2 1 1 1 3 6 9 7 8 7 6 5 8 7 4 1 1 3 6 6 7 8 7 6 6 6 6 7 8 9 11 12 11 10 8 7 6 5 5 4 4 2 1 2 2 2 2
3 1 1 2 2 4 5 5 9 14 9 9 9 11 12 11 9 8 7 6 4 3 5 6 8 6 7 7 5 6 6 6 7 11 12 10 6 5 5 5 5 4 3 3 2 1 1 1 1
4 2 3 6 8 9 13 12 10 15 13 15 20 20 17 14 12 11 11 11 9 7 6 5 7 8 7 6 5 6 6 7 9 10 12 12 7 4 5 5 6 7 6 5 4 3 3 2 3
2 5 6 8 8 9 16 14 10 12 13 18 20 18 16 15 14 14 14 13 12 11 10 7 5 6 7 8 8 6 7 9 9 10 12 14 11 7 5 4 5 6 8 8 6 4 3 2 3
3 5 8 9 6 3 9 14 13 12 14 19 18 16 16 15 14 14 13 12 11 11 10 9 6 4 5 8 9 7 8 9 8 10 13 15 14 11 7 5 5 7 9 8 5 4 3 2 3
5 6 5 7 9 6 10 9 14 12 15 17 16 14 14 14 13 12 12 12 11 11 11 11 9 7 5 6 8 6 8 8 8 11 12 15 16 14 9 6 6 8 8 6 4 3 3 3 3
8 4 4 6 11 7 9 8 11 12 15 16 15 13 13 13 13 12 12 12 12 11 11 11 11 10 8 6 6 7 7 8 9 10 11 14 16 15 10 6 6 7 5 4 5 4 4 4 4
2 2 3 5 7 11 13 11 11 12 15 14 13 12 12 13 13 12 11 11 11 10 10 10 11 11 10 6 4 5 7 7 7 8 10 12 13 14 11 6 6 6 5 5 5 4 4 3 4
2 4 3 4 5 8 12 11 9 11 14 15 14 14 14 12 11 11 11 10 10 11 11 11 11 11 9 6 4 4 5 6 6 7 9 10 10 11 8 6 5 5 6 6 6 4 4 3 3
4 4 3 3 6 7 9 9 6 9 12 11 11 12 13 15 14 14 12 11 11 12 11 11 11 11 9 8 6 4 4 4 5 5 7 9 10 9 8 7 5 5 5 4 5 4 3 3 4
4 3 1 1 5 5 4 4 7 6 7 12 13 12 12 14 15 14 13 12 11 11 12 11 11 11 10 10 7 6 3 2 2 4 6 6 8 9 7 7 6 6 5 5 5 5 5 4 3
2 2 3 2 4 3 3 0 6 8 9 15 16 15 14 15 14 13 13 12 12 11 11 10 10 10 10 10 8 8 4 4 4 3 4 5 6 7 8 8 8 8 7 7 7 6 4 4 4
4 4 1 2 5 5 7 3 5 7 10 16 16 15 15 14 14 13 12 11 11 10 10 9 9 9 9 9 9 8 6 4 3 2 2 3 4 5 6 7 8 8 7 8 8 8 7 5 5
3 3 5 6 5 5 5 3 5 6 10 15 15 15 15 14 14 13 12 11 10 10 9 9 9 9 9 9 9 9 8 6 4 2 1 1 1 2 3 4 6 6 6 8 8 8 8 7 6
9 6 4 6 6 2 3 3 2 6 9 10 13 14 14 13 13 13 13 13 12 12 11 9 9 9 10 9 9 9 8 7 6 4 3 3 2 1 2 3 3 4 5 6 6 7 8 8 7
5 5 5 3 2 1 3 3 3 4 8 9 10 10 12 13 13 14 13 12 12 12 11 10 10 9 9 9 9 8 8 6 5 6 5 4 3 2 2 2 3 3 4 4 4 4 5 5 6
4 4 2 6 3 3 3 3 3 6 11 11 12 12 13 13 14 14 13 12 11 11 11 11 10 10 9 9 9 9 8 7 6 6 5 4 3 3 3 3 3 3 3 4 4 3 3 4 4
5 4 5 5 3 2 3 3 6 11 13 13 13 13 13 13 13 13 12 12 11 10 10 10 10 10 9 9 8 8 8 8 7 6 6 5 4 4 4 4 4 4 4 3 3 3 3 3 3
6 5 6 5 4 4 1 3 3 7 9 10 11 11 11 11 11 11 10 10 10 10 10 10 11 11 11 10 9 9 9 9 8 7 7 5 4 4 4 4 4 4 3 3 3 3 3 3 2
5 4 3 4 3 3 2 3 5 6 7 7 9 10 10 9 9 8 9 9 9 10 10 10 10 10 10 10 9 10 9 9 10 9 8 7 6 5 4 4 4 4 3 3 2 2 2 2 2
Wind_Direction
311 118 107 67 54 51 40 331 293 52 54 39 81 96 99 95 160 222 107 135 134 142 153 154 151 151 148 145 141 138 136 133 132 131 132 132 133 133 133 132 132 131 131 132 134 134 132 129 126
157 129 72 60 77 66 342 311 339 56 126 133 75 76 76 70 77 108 132 140 139 143 147 151 154 153 152 152 150 147 144 140 137 136 135 134 133 133 132 132 132 132 131 131 133 135 134 133 129
145 96 78 66 81 124 292 303 127 83 117 63 67 57 72 95 131 146 156 144 142 144 146 157 158 157 157 157 156 154 150 146 144 141 139 136 135 134 133 133 131 130 130 131 132 135 138 137 132
101 52 53 64 48 303 284 300 172 134 80 51 86 65 59 73 150 150 143 148 148 147 151 164 162 163 163 163 163 161 158 155 153 149 145 141 138 135 133 132 128 126 127 129 130 134 139 139 134
64 72 54 42 356 322 315 319 196 143 91 57 81 81 40 8 114 134 145 154 154 152 158 169 167 169 170 171 172 170 167 164 160 157 153 151 146 139 135 131 125 122 122 124 124 128 136 137 130
56 63 69 27 336 328 343 345 80 100 95 86 91 86 31 90 130 145 152 155 157 159 164 173 174 176 178 178 179 178 177 174 169 167 165 165 159 150 143 137 129 123 115 111 109 110 121 124 117
88 80 94 56 344 353 354 347 53 86 107 143 121 97 79 179 167 147 147 145 153 164 168 178 181 183 185 185 186 186 186 183 180 179 180 182 177 168 161 154 148 141 126 112 101 98 101 104 101
104 95 80 43 19 342 330 355 34 49 80 109 109 137 185 198 157 133 128 137 155 170 180 186 186 186 188 191 193 192 192 189 188 189 191 194 194 187 180 173 173 174 167 144 107 93 89 84 80
80 73 93 189 176 300 337 15 13 24 66 48 46 170 193 143 136 128 129 149 174 191 198 197 197 197 195 195 200 198 198 196 195 196 198 197 198 195 192 189 194 204 204 194 155 94 81 72 59
68 99 199 204 191 223 16 33 12 26 32 16 15 26 90 127 143 157 171 185 197 205 205 204 205 206 202 205 207 204 200 199 197 196 198 192 190 195 198 204 213 218 221 223 222 234 52 63 54
82 144 221 265 193 352 46 54 33 38 23 357 344 27 79 89 81 54 262 238 224 222 215 209 208 211 207 214 208 203 201 196 195 194 194 189 187 195 200 204 226 236 232 229 318 19 45 48 40
86 94 90 348 56 41 42 59 51 43 19 3 38 66 64 60 45 27 9 349 327 290 246 228 208 208 212 214 216 205 200 197 197 198 194 185 183 191 197 200 211 218 215 210 228 248 275 288 278
54 57 49 37 72 69 65 58 68 36 31 46 56 55 50 46 37 31 26 22 12 357 328 279 227 212 210 209 216 210 208 209 205 200 199 194 191 192 197 204 209 213 213 211 216 224 243 262 271
44 81 53 37 57 66 72 50 47 22 32 47 52 51 47 42 34 28 23 18 12 3 350 331 282 233 216 215 217 215 212 212 206 205 204 202 201 199 197 202 208 212 211 213 214 217 230 259 270
76 88 51 29 27 82 86 47 26 17 41 46 42 41 40 36 32 27 17 10 4 356 351 345 329 293 242 228 223 222 216 210 210 212 209 207 206 205 202 203 211 213 210 208 208 213 221 248 252
45 59 45 13 14 31 79 60 16 19 44 43 34 30 30 27 25 18 12 5 358 356 354 350 345 336 300 258 234 225 218 210 214 212 210 211 210 208 203 207 219 213 197 191 188 192 207 231 226
34 54 40 14 17 42 77 76 27 26 44 41 30 23 22 18 15 9 7 3 356 353 350 350 349 345 328 297 258 235 222 214 215 211 210 211 211 209 205 211 219 208 190 187 198 184 186 203 206
356 70 65 46 36 69 83 78 43 32 41 36 24 17 14 12 4 358 359 357 351 350 349 349 349 348 340 319 284 246 229 221 213 210 210 206 208 207 205 210 213 202 197 197 192 189 187 193 188
93 109 100 68 86 82 89 79 48 34 34 27 19 11 4 358 351 352 354 353 351 352 351 346 347 346 345 338 320 279 248 231 219 212 206 200 198 198 198 207 202 198 209 213 196 179 185 182 145
70 87 60 64 92 103 105 81 48 39 33 21 11 4 356 350 350 349 349 350 352 348 346 343 344 342 343 334 315 287 277 251 226 214 200 193 188 188 195 199 198 193 201 202 188 180 172 171 162
50 98 343 290 80 86 121 65 18 3 14 11 9 2 356 351 346 341 343 343 344 345 343 341 338 339 340 336 326 312 292 274 223 207 204 195 188 184 180 181 181 181 187 194 189 189 182 180 186
326 328 296 245 120 55 14 357 359 335 345 0 357 353 349 345 342 340 341 340 339 337 335 334 334 337 341 342 340 331 309 284 266 247 212 191 188 177 176 173 173 175 181 187 190 187 187 178 189
292 324 356 106 118 70 25 66 331 341 351 346 345 344 342 340 338 336 337 334 332 332 333 332 335 339 343 346 345 340 329 306 300 285 214 192 184 178 173 173 171 176 184 188 188 188 192 194 194
338 65 61 54 72 55 343 41 350 348 333 331 337 339 338 337 335 334 335 336 335 336 336 339 341 342 345 348 350 351 348 348 357 6 66 111 124 135 154 169 168 176 186 192 195 194 194 198 199
34 67 46 27 34 21 333 62 334 311 327 329 332 335 338 340 343 341 341 344 343 339 341 345 348 345 347 352 355 355 356 6 19 19 44 70 76 86 130 150 163 177 187 192 195 195 198 197 197
29 81 119 141 149 312 12 27 296 308 333 337 336 337 346 348 346 347 347 346 343 345 350 351 351 348 350 355 355 359 5 13 19 24 34 44 49 56 78 113 139 151 160 174 179 185 188 184 190
53 57 116 120 109 75 16 349 338 342 348 349 348 350 352 349 347 349 350 352 352 356 357 357 357 356 357 359 359 5 8 14 19 23 33 39 40 53 70 86 96 108 123 132 139 148 160 160 174
82 98 74 80 104 75 5 1 336 332 336 338 341 342 339 340 345 347 351 353 356 1 359 3 5 3 5 8 11 12 11 13 17 25 28 33 38 49 64 78 88 90 95 110 120 129 129 135 145
22 48 74 79 92 121 57 324 301 303 313 321 324 327 328 333 338 340 343 346 352 1 7 11 12 12 13 13 14 18 16 17 23 28 25 25 35 46 59 67 77 84 91 103 112 122 127 124 131
93 77 109 116 94 106 129 277 288 303 308 314 318 323 326 329 334 338 340 347 358 3 4 7 10 12 12 11 16 20 19 22 26 26 23 27 34 38 47 62 69 66 66 72 90 105 108 126 160
Height
1507 1506 1506 1508 1511 1523 1526 1519 1513 1511 1511 1512 1512 1512 1514 1517 1520 1524 1520 1521 1524 1527 1530 1533 1535 1538 1540 1541 1543 1545 1546 1547 1548 1549 1550 1551 1552 1553 1554 1555 1556 1557 1558 1558 1559 1560 1561 1562 1562
1507 1507 1508 1509 1521 1537 1530 1518 1515 1512 1512 1513 1513 1514 1515 1517 1518 1518 1518 1522 1526 1529 1531 1534 1536 1538 1541 1542 1544 1545 1547 1548 1549 1550 1551 1552 1553 1554 1555 1555 1556 1557 1557 1558 1559 1560 1561 1562 1563
1508 1508 1509 1513 1526 1534 1527 1517 1515 1513 1514 1513 1514 1515 1516 1518 1518 1519 1520 1523 1527 1530 1532 1535 1537 1539 1541 1543 1544 1546 1547 1548 1549 1550 1551 1552 1553 1554 1555 1556 1556 1557 1557 1558 1559 1560 1561 1562 1563
1509 1510 1511 1520 1527 1524 1520 1516 1515 1514 1515 1514 1515 1517 1519 1520 1521 1521 1523 1525 1527 1530 1533 1536 1538 1540 1542 1543 1545 1546 1547 1548 1549 1551 1552 1553 1553 1554 1555 1556 1556 1557 1557 1558 1559 1560 1561 1562 1563
1510 1510 1519 1529 1527 1521 1517 1515 1515 1515 1515 1516 1517 1519 1520 1522 1523 1524 1525 1526 1528 1531 1534 1536 1538 1540 1542 1544 1545 1546 1547 1549 1550 1551 1552 1553 1554 1555 1555 1556 1556 1557 1557 1558 1559 1560 1561 1562 1563
1511 1513 1530 1536 1530 1521 1516 1515 1514 1515 1517 1517 1518 1520 1522 1523 1524 1526 1527 1528 1530 1532 1535 1537 1539 1540 1542 1544 1545 1546 1548 1549 1550 1551 1552 1553 1554 1555 1555 1556 1556 1557 1558 1558 1559 1560 1561 1562 1563
1513 1519 1531 1533 1531 1524 1518 1516 1516 1517 1518 1520 1520 1521 1523 1524 1526 1527 1528 1530 1531 1533 1535 1537 1539 1540 1542 1543 1545 1546 1547 1548 1550 1551 1552 1553 1554 1555 1555 1556 1556 1557 1558 1558 1559 1560 1561 1562 1563
1514 1520 1530 1533 1531 1528 1521 1518 1519 1520 1521 1522 1522 1522 1524 1525 1527 1529 1530 1531 1533 1534 1536 1537 1539 1540 1542 1543 1544 1545 1547 1548 1549 1550 1552 1553 1554 1554 1555 1556 1556 1557 1558 1559 1559 1560 1561 1562 1563
1515 1526 1534 1531 1530 1527 1522 1521 1522 1522 1523 1524 1524 1524 1525 1526 1527 1529 1531 1532 1533 1535 1536 1538 1539 1540 1541 1542 1543 1544 1546 1547 1548 1549 1551 1552 1553 1554 1554 1555 1556 1557 1558 1559 1560 1560 1561 1562 1563
1517 1530 1528 1525 1525 1525 1524 1525 1525 1525 1525 1526 1526 1526 1527 1528 1529 1531 1532 1533 1534 1535 1536 1538 1539 1540 1541 1541 1542 1543 1544 1545 1547 1548 1549 1550 1552 1553 1553 1554 1555 1556 1557 1558 1559 1560 1561 1562 1563
1519 1525 1523 1523 1524 1525 1526 1528 1529 1530 1533 1534 1531 1530 1530 1532 1533 1534 1535 1536 1536 1537 1538 1538 1539 1540 1540 1541 1541 1542 1543 1544 1545 1546 1548 1549 1550 1551 1552 1553 1554 1555 1556 1557 1559 1560 1561 1562 1563
1522 1523 1524 1525 1525 1527 1528 1531 1535 1538 1542 1537 1533 1532 1533 1534 1535 1536 1536 1537 1537 1538 1538 1539 1539 1539 1540 1540 1540 1541 1542 1542 1543 1545 1546 1547 1548 1549 1551 1552 1553 1554 1555 1556 1558 1559 1561 1562 1563
1523 1525 1526 1527 1528 1530 1532 1537 1541 1545 1544 1539 1535 1535 1536 1538 1538 1537 1537 1536 1536 1536 1536 1537 1538 1538 1539 1539 1539 1539 1540 1540 1542 1543 1544 1545 1546 1548 1549 1550 1551 1552 1553 1555 1557 1558 1560 1562 1563
1526 1527 1528 1530 1531 1534 1537 1543 1545 1550 1547 1542 1539 1539 1540 1540 1539 1538 1537 1536 1535 1534 1534 1534 1534 1535 1536 1537 1537 1538 1538 1539 1539 1540 1541 1543 1544 1546 1547 1549 1549 1550 1552 1553 1556 1558 1559 1561 1562
1525 1528 1531 1533 1534 1536 1537 1550 1555 1556 1550 1546 1545 1545 1544 1543 1541 1540 1538 1536 1535 1533 1532 1531 1531 1531 1532 1533 1533 1535 1536 1536 1537 1537 1538 1540 1541 1543 1545 1546 1548 1549 1550 1552 1554 1556 1558 1559 1561
1527 1534 1543 1540 1538 1538 1543 1564 1563 1559 1554 1551 1550 1548 1547 1546 1544 1542 1540 1537 1535 1532 1530 1529 1528 1527 1527 1528 1529 1530 1532 1532 1533 1534 1535 1536 1538 1540 1542 1544 1545 1547 1549 1550 1552 1554 1556 1558 1559
1541 1546 1547 1546 1544 1543 1550 1565 1566 1562 1557 1555 1554 1552 1549 1548 1545 1543 1540 1538 1535 1532 1529 1527 1525 1524 1523 1523 1524 1525 1526 1527 1529 1530 1531 1533 1534 1536 1538 1540 1543 1545 1546 1548 1550 1552 1554 1556 1557
1549 1549 1550 1552 1553 1552 1559 1568 1568 1565 1561 1559 1557 1554 1552 1549 1547 1544 1540 1537 1534 1531 1528 1526 1523 1521 1519 1519 1519 1519 1520 1522 1523 1525 1527 1528 1530 1532 1534 1536 1539 1541 1543 1545 1547 1549 1551 1553 1555
1546 1549 1553 1553 1554 1559 1565 1569 1569 1566 1563 1561 1559 1556 1553 1551 1548 1544 1540 1537 1533 1530 1527 1524 1521 1518 1516 1515 1514 1513 1514 1515 1517 1519 1521 1523 1525 1527 1529 1532 1534 1537 1539 1541 1543 1545 1547 1550 1552
1549 1554 1556 1556 1556 1562 1568 1570 1569 1568 1567 1565 1562 1558 1555 1550 1546 1542 1539 1536 1531 1528 1525 1522 1519 1516 1513 1511 1510 1509 1509 1509 1510 1513 1515 1517 1519 1522 1524 1526 1529 1531 1534 1536 1538 1540 1543 1545 1548
1554 1557 1557 1557 1560 1564 1567 1572 1572 1569 1567 1565 1562 1559 1555 1552 1547 1542 1538 1535 1531 1527 1524 1521 1517 1514 1511 1509 1506 1505 1504 1504 1505 1506 1508 1511 1513 1516 1518 1520 1523 1525 1528 1531 1533 1535 1538 1541 1543
1560 1555 1555 1555 1564 1574 1571 1580 1578 1573 1568 1565 1562 1558 1555 1551 1546 1542 1538 1534 1530 1527 1523 1520 1517 1513 1509 1506 1504 1502 1500 1500 1500 1501 1503 1505 1507 1510 1513 1515 1517 1520 1522 1525 1527 1530 1533 1536 1538
1558 1555 1556 1557 1566 1577 1580 1582 1584 1576 1572 1567 1563 1559 1555 1551 1546 1542 1537 1533 1530 1526 1523 1519 1516 1512 1508 1505 1502 1500 1498 1497 1497 1497 1498 1500 1502 1505 1507 1510 1513 1514 1516 1519 1522 1524 1527 1530 1533
1556 1557 1560 1566 1573 1587 1587 1586 1587 1582 1578 1571 1565 1561 1556 1551 1546 1541 1537 1532 1529 1526 1522 1519 1515 1512 1508 1505 1502 1499 1497 1495 1495 1495 1496 1497 1499 1500 1503 1506 1508 1511 1513 1515 1517 1519 1521 1524 1526
1560 1567 1576 1579 1590 1591 1584 1586 1588 1581 1577 1573 1568 1562 1557 1552 1546 1541 1536 1531 1528 1525 1522 1518 1515 1512 1509 1505 1502 1500 1497 1495 1495 1494 1495 1496 1497 1498 1500 1502 1504 1507 1509 1510 1513 1514 1516 1519 1521
1567 1572 1583 1586 1591 1593 1586 1588 1586 1579 1576 1573 1568 1563 1558 1553 1548 1542 1537 1533 1529 1526 1522 1519 1516 1513 1510 1507 1504 1501 1499 1497 1496 1495 1495 1496 1496 1497 1499 1500 1502 1503 1505 1507 1508 1510 1512 1514 1517
1569 1576 1576 1585 1588 1593 1591 1586 1581 1578 1575 1572 1568 1563 1560 1555 1550 1544 1539 1535 1530 1527 1523 1520 1517 1514 1511 1509 1506 1504 1501 1500 1498 1497 1496 1496 1497 1497 1498 1498 1499 1500 1502 1504 1506 1507 1509 1511 1514
1572 1575 1582 1587 1593 1597 1593 1590 1591 1583 1578 1573 1569 1565 1561 1557 1552 1547 1542 1538 1533 1529 1525 1522 1519 1516 1513 1511 1508 1506 1504 1502 1500 1499 1498 1498 1498 1498 1498 1498 1498 1499 1500 1502 1504 1506 1507 1509 1511
1576 1579 1586 1593 1595 1600 1600 1597 1586 1584 1579 1576 1571 1567 1563 1559 1555 1550 1546 1542 1537 1533 1529 1525 1522 1519 1516 1513 1511 1509 1507 1505 1503 1502 1501 1500 1500 1499 1499 1499 1499 1499 1500 1501 1503 1504 1506 1507 1509
1576 1581 1585 1592 1599 1598 1598 1599 1582 1581 1578 1575 1572 1568 1565 1561 1558 1554 1549 1545 1541 1537 1533 1529 1526 1522 1519 1517 1514 1512 1510 1508 1506 1504 1503 1503 1502 1502 1501 1501 1501 1501 1501 1502 1503 1504 1505 1507 1509